, AK

(GMT )
Denali Park

Weather History for PAIN - January, 2014

Change the Weather History Date:

Tuesday, January 28, 2014

  Actual Average Record
Temperature  
Mean Temperature 37 °F -  
Max Temperature 44 °F 12 °F 44 °F (2014)
Min Temperature 30 °F -6 °F -51 °F (1989)
Degree Days  
Heating Degree Days 28    
Moisture  
Dew Point 29 °F    
Average Humidity 66    
Maximum Humidity 93    
Minimum Humidity 53    
Precipitation  
Precipitation 0.00 in - - ()
Sea Level Pressure  
Sea Level Pressure 29.87 in    
Wind  
Wind Speed 2 mph (SSW)    
Max Wind Speed 7 mph    
Max Gust Speed -    
Visibility 10 miles    
Events      
Averages and records for this station are not official NWS values.
T = Trace of Precipitation, MM = Missing Value Source: NWS Daily Summary

Daily Weather History Graph

Daily Weather History Graph

Search for Another Location

Airport or City:

Trip Planner

Search our weather history database for the weather conditions in past years. The results will help you decide how hot, cold, wet, or windy it might be!

Date:

Astronomy

Jan. 28, 2014 Rise Set
Actual Time 9:43 AM AKST 4:34 PM AKST
Civil Twilight 8:46 AM AKST 5:32 PM AKST
Nautical Twilight 7:47 AM AKST 6:31 PM AKST
Astronomical Twilight 6:51 AM AKST 7:26 PM AKST
Moon 7:51 AM AKST (1/28) 2:21 PM AKST (1/28)
Length of Visible Light 8h 45m
Length of Day
6h 50m
Waning Crescent, 6% of the Moon is Illuminated
Jan 28
Waning Crescent
Jan 30
New
Feb 6
First Quarter
Feb 14
Full
Feb 22
Last Quarter

Hourly Weather History & Observations

Time (AKST) Temp. Windchill Dew Point Humidity Pressure Visibility Wind Dir Wind Speed Gust Speed Precip Events Conditions
12:16 AM 44.6 °F - 28.4 °F 53% 29.79 in 10.0 mi Calm Calm - N/A   Clear
12:36 AM 44.6 °F - 28.4 °F 53% 29.79 in 10.0 mi Calm Calm - N/A   Clear
12:56 AM 42.8 °F - 28.4 °F 57% 29.79 in 10.0 mi Calm Calm - N/A   Clear
1:16 AM 44.6 °F - 28.4 °F 53% 29.79 in 10.0 mi Calm Calm - N/A   Clear
1:36 AM 44.6 °F 43.1 °F 28.4 °F 53% 29.79 in 10.0 mi SW 3.5 mph - N/A   Clear
1:56 AM 42.8 °F 41.1 °F 28.4 °F 57% 29.78 in 10.0 mi SSW 3.5 mph - N/A   Clear
2:16 AM 44.6 °F 42.2 °F 28.4 °F 53% 29.78 in 10.0 mi SW 4.6 mph - N/A   Clear
2:36 AM 44.6 °F 42.2 °F 28.4 °F 53% 29.79 in 10.0 mi WSW 4.6 mph - N/A   Clear
2:56 AM 44.6 °F 42.2 °F 28.4 °F 53% 29.79 in 10.0 mi SW 4.6 mph - N/A   Clear
3:16 AM 44.6 °F 42.2 °F 28.4 °F 53% 29.79 in 10.0 mi SW 4.6 mph - N/A   Clear
3:36 AM 42.8 °F 40.1 °F 28.4 °F 57% 29.79 in 10.0 mi SW 4.6 mph - N/A   Clear
3:56 AM 42.8 °F - 28.4 °F 57% 29.79 in 10.0 mi Calm Calm - N/A   Clear
4:16 AM 39.2 °F - 28.4 °F 65% 29.79 in 10.0 mi Calm Calm - N/A   Clear
4:36 AM 39.2 °F - 30.2 °F 70% 29.79 in 10.0 mi Calm Calm - N/A   Clear
4:56 AM 42.8 °F 41.1 °F 28.4 °F 57% 29.79 in 10.0 mi WSW 3.5 mph - N/A   Clear
5:16 AM 42.8 °F - 28.4 °F 57% 29.79 in 10.0 mi Calm Calm - N/A   Clear
5:36 AM 41.0 °F - 28.4 °F 61% 29.79 in 10.0 mi Calm Calm - N/A   Clear
5:56 AM 42.8 °F - 28.4 °F 57% 29.79 in 10.0 mi Calm Calm - N/A   Clear
6:16 AM 42.8 °F - 28.4 °F 57% 29.80 in 10.0 mi Calm Calm - N/A   Clear
6:36 AM 39.2 °F - 28.4 °F 65% 29.80 in 10.0 mi Calm Calm - N/A   Clear
6:56 AM 37.4 °F - 28.4 °F 70% 29.81 in 10.0 mi Calm Calm - N/A   Clear
7:16 AM 39.2 °F - 28.4 °F 65% 29.81 in 10.0 mi Calm Calm - N/A   Clear
7:36 AM 42.8 °F - 28.4 °F 57% 29.81 in 10.0 mi Calm Calm - N/A   Clear
7:56 AM 39.2 °F 35.9 °F 28.4 °F 65% 29.82 in 10.0 mi SSW 4.6 mph - N/A   Clear
8:16 AM 37.4 °F 34.9 °F 28.4 °F 70% 29.82 in 10.0 mi WSW 3.5 mph - N/A   Clear
8:36 AM 37.4 °F 32.8 °F 28.4 °F 70% 29.83 in 10.0 mi SW 5.8 mph - N/A   Clear
8:56 AM 35.6 °F - 28.4 °F 75% 29.83 in 10.0 mi Calm Calm - N/A   Clear
9:16 AM 37.4 °F - 28.4 °F 70% 29.84 in 10.0 mi Calm Calm - N/A   Partly Cloudy
9:36 AM 37.4 °F - 28.4 °F 70% 29.84 in 10.0 mi Calm Calm - N/A   Partly Cloudy
9:56 AM 37.4 °F 33.8 °F 28.4 °F 70% 29.84 in 10.0 mi SW 4.6 mph - N/A   Clear
10:16 AM 35.6 °F 32.8 °F 28.4 °F 75% 29.85 in 10.0 mi SSW 3.5 mph - N/A   Clear
10:36 AM 35.6 °F 32.8 °F 28.4 °F 75% 29.85 in 10.0 mi SW 3.5 mph - N/A   Clear
10:56 AM 39.2 °F - 28.4 °F 65% 29.86 in 10.0 mi Calm Calm - N/A   Clear
11:16 AM 39.2 °F - 28.4 °F 65% 29.86 in 10.0 mi Calm Calm - N/A   Clear
11:36 AM 41.0 °F 38.0 °F 28.4 °F 61% 29.87 in 10.0 mi SW 4.6 mph - N/A   Clear
11:56 AM 42.8 °F 41.1 °F 28.4 °F 57% 29.87 in 10.0 mi SSW 3.5 mph - N/A   Clear
12:16 PM 42.8 °F - 28.4 °F 57% 29.88 in 10.0 mi Calm Calm - N/A   Clear
12:36 PM 42.8 °F 41.1 °F 28.4 °F 57% 29.88 in 10.0 mi East 3.5 mph - N/A   Clear
12:56 PM 41.0 °F 38.0 °F 28.4 °F 61% 29.89 in 10.0 mi East 4.6 mph - N/A   Clear
1:16 PM 41.0 °F 37.1 °F 28.4 °F 61% 29.89 in 10.0 mi ESE 5.8 mph - N/A   Partly Cloudy
1:36 PM 39.2 °F 37.0 °F 28.4 °F 65% 29.89 in 10.0 mi SSE 3.5 mph - N/A   Scattered Clouds
1:56 PM 39.2 °F 35.9 °F 28.4 °F 65% 29.90 in 10.0 mi South 4.6 mph - N/A   Partly Cloudy
2:16 PM 39.2 °F 35.9 °F 28.4 °F 65% 29.90 in 10.0 mi SSE 4.6 mph - N/A   Partly Cloudy
2:36 PM 41.0 °F 38.0 °F 28.4 °F 61% 29.89 in 10.0 mi South 4.6 mph - N/A   Clear
2:56 PM 41.0 °F 39.0 °F 28.4 °F 61% 29.90 in 10.0 mi South 3.5 mph - N/A   Partly Cloudy
3:16 PM 41.0 °F 39.0 °F 28.4 °F 61% 29.90 in 10.0 mi South 3.5 mph - N/A   Scattered Clouds
3:36 PM 41.0 °F 39.0 °F 28.4 °F 61% 29.90 in 10.0 mi SSW 3.5 mph - N/A   Mostly Cloudy
3:56 PM 39.2 °F - 28.4 °F 65% 29.90 in 10.0 mi Calm Calm - N/A   Mostly Cloudy
4:16 PM 39.2 °F 37.0 °F 28.4 °F 65% 29.91 in 10.0 mi SSW 3.5 mph - N/A   Overcast
4:36 PM 39.2 °F 35.0 °F 28.4 °F 65% 29.91 in 10.0 mi South 5.8 mph - N/A   Overcast
4:56 PM 39.2 °F 34.2 °F 28.4 °F 65% 29.92 in 10.0 mi SE 6.9 mph - N/A   Overcast
5:16 PM 39.2 °F 37.0 °F 28.4 °F 65% 29.92 in 10.0 mi South 3.5 mph - N/A   Scattered Clouds
5:36 PM 39.2 °F 35.0 °F 28.4 °F 65% 29.93 in 10.0 mi SSE 5.8 mph - N/A   Mostly Cloudy
5:56 PM 39.2 °F 34.2 °F 28.4 °F 65% 29.93 in 10.0 mi SE 6.9 mph - N/A   Overcast
6:16 PM 39.2 °F 35.9 °F 28.4 °F 65% 29.94 in 10.0 mi South 4.6 mph - N/A   Overcast
6:36 PM 39.2 °F 35.9 °F 28.4 °F 65% 29.94 in 10.0 mi South 4.6 mph - N/A   Overcast
6:56 PM 37.4 °F - 28.4 °F 70% 29.94 in 10.0 mi Calm Calm - N/A   Mostly Cloudy
7:16 PM 37.4 °F 33.8 °F 28.4 °F 70% 29.94 in 10.0 mi WSW 4.6 mph - N/A   Mostly Cloudy
7:36 PM 37.4 °F - 28.4 °F 70% 29.95 in 10.0 mi Calm Calm - N/A   Mostly Cloudy
7:56 PM 37.4 °F - 30.2 °F 75% 29.95 in 10.0 mi Calm Calm - N/A   Partly Cloudy
8:16 PM 37.4 °F - 30.2 °F 75% 29.95 in 10.0 mi Calm Calm - N/A   Scattered Clouds
8:36 PM 37.4 °F 34.9 °F 30.2 °F 75% 29.95 in 10.0 mi WNW 3.5 mph - N/A   Mostly Cloudy
8:56 PM 37.4 °F - 30.2 °F 75% 29.96 in 10.0 mi Calm Calm - N/A   Scattered Clouds
9:16 PM 37.4 °F - 30.2 °F 75% 29.95 in 10.0 mi Calm Calm - N/A   Partly Cloudy
9:36 PM 35.6 °F - 30.2 °F 81% 29.95 in 10.0 mi Calm Calm - N/A   Clear
9:56 PM 32.0 °F - 28.4 °F 87% 29.96 in 10.0 mi Calm Calm - N/A   Clear
10:16 PM 32.0 °F - 28.4 °F 87% 29.96 in 10.0 mi Calm Calm - N/A   Clear
10:36 PM 30.2 °F - 28.4 °F 93% 29.96 in 10.0 mi Calm Calm - N/A   Clear
10:56 PM 30.2 °F - 28.4 °F 93% 29.97 in 10.0 mi Calm Calm - N/A   Partly Cloudy
11:16 PM 32.0 °F - 28.4 °F 87% 29.97 in 10.0 mi Calm Calm - N/A   Partly Cloudy
11:36 PM 35.6 °F 32.8 °F 30.2 °F 81% 29.97 in 10.0 mi South 3.5 mph - N/A   Clear
11:56 PM 33.8 °F 29.6 °F 28.4 °F 81% 29.97 in 10.0 mi SW 4.6 mph - N/A   Clear